When you browse on this site, cookies collect data to enhance your experience and personalize the content and advertising you see.
Visit our Privacy Policy to learn more. By continuing to use the site, you agree to this use of cookies and data.
  • In Schweiz
  • Länderverzeichnis
  • Für 7 Tage
  • Wassertemperatur
  • Satellitenkarten
  • Wetterkarte
  • Widgets
  • user-avatar
    Anmelden

    Stündliche Wetter Bolshoe Sonino

    Heute, 16 Juli, Dienstag

    Zeit Temperatur Niederschläge Wind Luftdruck Luftfeuchtigkeit
    00:00 +14°C° 0.1 mm 1 m/S 742 mmHg 91%
    01:00 +14°C° 0.1 mm 1 m/S 742 mmHg 91%
    02:00 +14°C° 0 mm 1 m/S 743 mmHg 92%
    03:00 +14°C° 0.2 mm 1 m/S 742 mmHg 92%
    04:00 +15°C° 0.2 mm 1 m/S 742 mmHg 92%
    05:00 +15°C° 0.2 mm 1 m/S 742 mmHg 92%
    06:00 +16°C° 0 mm 2 m/S 742 mmHg 89%
    07:00 +17°C° 0 mm 2 m/S 742 mmHg 87%
    08:00 +19°C° 0 mm 2 m/S 742 mmHg 84%
    09:00 +21°C° 1 mm 1 m/S 742 mmHg 81%
    10:00 +22°C° 1 mm 1 m/S 742 mmHg 77%
    11:00 +23°C° 1 mm 1 m/S 741 mmHg 73%
    12:00 +23°C° 0.7 mm 1 m/S 741 mmHg 73%
    13:00 +23°C° 0.7 mm 1 m/S 741 mmHg 72%
    14:00 +23°C° 0.7 mm 1 m/S 741 mmHg 71%
    15:00 +23°C° 1.1 mm 1 m/S 740 mmHg 74%
    16:00 +23°C° 1.1 mm 2 m/S 740 mmHg 77%
    17:00 +21°C° 1.1 mm 2 m/S 740 mmHg 80%
    18:00 +20°C° 0.4 mm 2 m/S 740 mmHg 83%
    19:00 +19°C° 0.4 mm 3 m/S 740 mmHg 85%
    20:00 +17°C° 0.4 mm 3 m/S 740 mmHg 87%
    21:00 +17°C° 0 mm 3 m/S 740 mmHg 90%
    22:00 +17°C° 0 mm 3 m/S 740 mmHg 92%
    23:00 +16°C° 0 mm 3 m/S 740 mmHg 94%

    Morgen, 17 Juli, Mittwoch

    Zeit Temperatur Niederschläge Wind Luftdruck Luftfeuchtigkeit
    00:00 +16°C° 0 mm 3 m/S 740 mmHg 94%
    01:00 +16°C° 0 mm 2 m/S 740 mmHg 94%
    02:00 +16°C° 0 mm 2 m/S 740 mmHg 94%
    03:00 +16°C° 0.2 mm 2 m/S 740 mmHg 95%
    04:00 +16°C° 0.2 mm 3 m/S 740 mmHg 96%
    05:00 +16°C° 0.2 mm 3 m/S 740 mmHg 96%
    06:00 +16°C° 0.2 mm 3 m/S 740 mmHg 96%
    07:00 +16°C° 0.2 mm 3 m/S 740 mmHg 96%
    08:00 +16°C° 0.2 mm 3 m/S 740 mmHg 96%
    09:00 +17°C° 0.4 mm 3 m/S 739 mmHg 93%
    10:00 +18°C° 0.4 mm 3 m/S 739 mmHg 91%
    11:00 +19°C° 0.4 mm 3 m/S 739 mmHg 89%
    12:00 +19°C° 0.6 mm 3 m/S 739 mmHg 86%
    13:00 +20°C° 0.6 mm 3 m/S 739 mmHg 83%
    14:00 +21°C° 0.6 mm 3 m/S 739 mmHg 79%
    15:00 +21°C° 0.9 mm 2 m/S 739 mmHg 80%
    16:00 +21°C° 0.9 mm 2 m/S 738 mmHg 81%
    17:00 +21°C° 0.9 mm 2 m/S 738 mmHg 82%
    18:00 +19°C° 0.7 mm 2 m/S 738 mmHg 84%
    19:00 +18°C° 0.7 mm 2 m/S 738 mmHg 87%
    20:00 +17°C° 0.7 mm 2 m/S 738 mmHg 90%
    21:00 +16°C° 0 mm 2 m/S 738 mmHg 91%
    22:00 +15°C° 0 mm 2 m/S 738 mmHg 91%
    23:00 +15°C° 0 mm 2 m/S 738 mmHg 92%

    übermorgen, 18 Juli, Donnerstag

    Zeit Temperatur Niederschläge Wind Luftdruck Luftfeuchtigkeit
    00:00 +14°C° 0 mm 2 m/S 738 mmHg 93%
    01:00 +14°C° 0 mm 2 m/S 738 mmHg 94%
    02:00 +13°C° 0 mm 2 m/S 738 mmHg 95%
    03:00 +13°C° 0 mm 2 m/S 738 mmHg 95%
    04:00 +13°C° 0 mm 2 m/S 738 mmHg 95%
    05:00 +14°C° 0 mm 2 m/S 738 mmHg 95%
    06:00 +14°C° 0 mm 3 m/S 738 mmHg 91%
    07:00 +17°C° 0 mm 3 m/S 738 mmHg 87%
    08:00 +18°C° 0 mm 3 m/S 739 mmHg 83%
    09:00 +19°C° 0.5 mm 4 m/S 739 mmHg 79%
    10:00 +20°C° 0.5 mm 4 m/S 739 mmHg 76%
    11:00 +20°C° 0.5 mm 5 m/S 739 mmHg 72%
    12:00 +21°C° 0.4 mm 5 m/S 739 mmHg 73%
    13:00 +21°C° 0.4 mm 5 m/S 739 mmHg 73%
    14:00 +21°C° 0.4 mm 5 m/S 739 mmHg 73%
    15:00 +20°C° 0.4 mm 4 m/S 739 mmHg 75%
    16:00 +20°C° 0.4 mm 4 m/S 739 mmHg 77%
    17:00 +20°C° 0.4 mm 4 m/S 739 mmHg 79%
    18:00 +18°C° 0.3 mm 4 m/S 739 mmHg 83%
    19:00 +17°C° 0.3 mm 3 m/S 740 mmHg 88%
    20:00 +16°C° 0.3 mm 3 m/S 740 mmHg 92%
    21:00 +14°C° 0 mm 3 m/S 740 mmHg 93%
    22:00 +13°C° 0 mm 3 m/S 740 mmHg 94%
    23:00 +13°C° 0 mm 3 m/S 740 mmHg 95%

    19 Juli, Freitag

    Zeit Temperatur Niederschläge Wind Luftdruck Luftfeuchtigkeit
    00:00 +12°C° 0 mm 3 m/S 740 mmHg 96%
    01:00 +12°C° 0 mm 3 m/S 740 mmHg 96%
    02:00 +12°C° 0 mm 3 m/S 740 mmHg 97%
    03:00 +12°C° 0 mm 4 m/S 740 mmHg 96%
    04:00 +12°C° 0 mm 4 m/S 740 mmHg 96%
    05:00 +13°C° 0 mm 4 m/S 740 mmHg 96%
    06:00 +14°C° 0 mm 5 m/S 741 mmHg 93%
    07:00 +15°C° 0 mm 5 m/S 741 mmHg 91%
    08:00 +16°C° 0 mm 6 m/S 741 mmHg 88%
    09:00 +16°C° 0 mm 5 m/S 741 mmHg 86%
    10:00 +17°C° 0 mm 5 m/S 741 mmHg 83%
    11:00 +17°C° 0 mm 5 m/S 741 mmHg 81%
    12:00 +19°C° 0.1 mm 5 m/S 741 mmHg 79%
    13:00 +19°C° 0.1 mm 5 m/S 741 mmHg 77%
    14:00 +20°C° 0.1 mm 5 m/S 741 mmHg 74%
    15:00 +20°C° 0.1 mm 5 m/S 741 mmHg 75%
    16:00 +20°C° 0.1 mm 4 m/S 742 mmHg 76%
    17:00 +20°C° 0.1 mm 4 m/S 742 mmHg 77%
    18:00 +19°C° 0.2 mm 4 m/S 742 mmHg 82%
    19:00 +18°C° 0.2 mm 4 m/S 742 mmHg 88%
    20:00 +16°C° 0.2 mm 3 m/S 742 mmHg 93%
    21:00 +16°C° 0 mm 3 m/S 743 mmHg 94%
    22:00 +14°C° 0 mm 4 m/S 743 mmHg 95%
    23:00 +14°C° 0 mm 4 m/S 743 mmHg 96%

    20 Juli, Samstag

    Zeit Temperatur Niederschläge Wind Luftdruck Luftfeuchtigkeit
    00:00 +13°C° 0 mm 4 m/S 743 mmHg 96%
    01:00 +13°C° 0 mm 4 m/S 744 mmHg 97%
    02:00 +13°C° 0 mm 4 m/S 744 mmHg 97%
    03:00 +13°C° 0 mm 4 m/S 744 mmHg 96%
    04:00 +13°C° 0 mm 4 m/S 744 mmHg 96%
    05:00 +13°C° 0 mm 4 m/S 744 mmHg 95%
    06:00 +14°C° 0 mm 5 m/S 745 mmHg 91%
    07:00 +15°C° 0 mm 5 m/S 745 mmHg 87%
    08:00 +16°C° 0 mm 6 m/S 745 mmHg 83%
    09:00 +19°C° 0 mm 6 m/S 745 mmHg 76%
    10:00 +20°C° 0 mm 6 m/S 746 mmHg 69%
    11:00 +22°C° 0 mm 6 m/S 746 mmHg 62%
    12:00 +22°C° 0.1 mm 6 m/S 746 mmHg 61%
    13:00 +23°C° 0.1 mm 6 m/S 746 mmHg 61%
    14:00 +23°C° 0.1 mm 6 m/S 746 mmHg 61%
    15:00 +23°C° 0.1 mm 5 m/S 746 mmHg 64%
    16:00 +23°C° 0.1 mm 5 m/S 746 mmHg 67%
    17:00 +22°C° 0.1 mm 4 m/S 746 mmHg 70%
    18:00 +21°C° 0.1 mm 4 m/S 746 mmHg 76%
    19:00 +19°C° 0.1 mm 3 m/S 746 mmHg 81%
    20:00 +17°C° 0.1 mm 3 m/S 747 mmHg 86%
    21:00 +16°C° 0 mm 3 m/S 747 mmHg 88%
    22:00 +16°C° 0 mm 3 m/S 747 mmHg 90%
    23:00 +14°C° 0 mm 3 m/S 747 mmHg 93%

    21 Juli, Sonntag

    Zeit Temperatur Niederschläge Wind Luftdruck Luftfeuchtigkeit
    00:00 +13°C° 0 mm 3 m/S 747 mmHg 93%
    01:00 +13°C° 0 mm 3 m/S 747 mmHg 93%
    02:00 +13°C° 0 mm 3 m/S 747 mmHg 94%
    03:00 +13°C° 0 mm 3 m/S 747 mmHg 93%
    04:00 +13°C° 0 mm 3 m/S 747 mmHg 93%
    05:00 +13°C° 0 mm 3 m/S 748 mmHg 92%
    06:00 +16°C° 0 mm 3 m/S 748 mmHg 87%
    07:00 +18°C° 0 mm 3 m/S 748 mmHg 81%
    08:00 +20°C° 0 mm 3 m/S 748 mmHg 75%
    09:00 +21°C° 0 mm 4 m/S 748 mmHg 71%
    10:00 +22°C° 0 mm 4 m/S 748 mmHg 66%
    11:00 +23°C° 0 mm 4 m/S 748 mmHg 62%
    12:00 +23°C° 0.1 mm 4 m/S 748 mmHg 62%
    13:00 +25°C° 0.1 mm 4 m/S 748 mmHg 62%
    14:00 +25°C° 0.1 mm 4 m/S 747 mmHg 62%
    15:00 +23°C° 0.4 mm 4 m/S 747 mmHg 66%
    16:00 +24°C° 0.4 mm 3 m/S 747 mmHg 70%
    17:00 +24°C° 0.4 mm 3 m/S 747 mmHg 74%
    18:00 +21°C° 0.4 mm 3 m/S 747 mmHg 78%
    19:00 +19°C° 0.4 mm 3 m/S 747 mmHg 83%
    20:00 +17°C° 0.4 mm 2 m/S 747 mmHg 87%
    21:00 +17°C° 0 mm 2 m/S 747 mmHg 89%
    22:00 +16°C° 0 mm 2 m/S 747 mmHg 91%
    23:00 +16°C° 0 mm 2 m/S 747 mmHg 93%
    Mehr zeigen